User: anonymous   Login
Location: Unspecified
(0.0000°N, 0.0000°E)
Time: 09:05:15
(UTC+00:00)
Language:

JASON 3 - Orbit

View from above orbital plane
View from above orbital plane
View from above satellite
View from above satellite

Ground track
Ground track

The orbit data is extracted from the following two-line orbital elements,

1 41240U 16002A   18018.57807738 -.00000058 +00000-0 +12172-4 0  9994
2 41240 066.0418 034.7740 0008139 271.2666 088.7417 12.80929866093732
Epoch (UTC): 18 January 2018 13:52:25
Eccentricity: 0.0008139
inclination: 66.0418°
perigee height: 1331 km
apogee height: 1344 km
right ascension of ascending node: 34.7740°
argument of perigee: 271.2666°
revolutions per day: 12.80929866
mean anomaly at epoch: 88.7417°
orbit number at epoch: 9373

The dashed part of the orbit path shows where the satellite is in the earth's shadow,  

DLR